sat.trackr.live / text

‹ back to catalog

GLOBALSTAR M089

NORAD 37744 · 2011-033F

PAYLOAD ACTIVE UNKNOWN

§ Identity

Operator
Country
GLOB
Launch date
2011-07-13
Launch site
TYMSC
Launch vehicle
Mass (kg)
RCS (m²)
5.16

Purposes: comms

External: N2YO · Heavens-Above · Gunter

§ Orbital elements

Epoch: 2026-09-04T02:47:57.181056Z

Period
114.08 min
Inclination
51.9917°
Eccentricity
0.0000119
Mean motion
12.62263259 rev/d
Perigee alt
1,413.5 km
Apogee alt
1,413.7 km
Semi-major
7,791.8 km
B*
1.0962e-4
RAAN
269.4732°
Arg perigee
42.1920°
Mean anomaly
353.0690°
Rev number
70,075

§ Raw data

GLOBALSTAR M0891 37744U 11033F   26247.11663404 -.00000084  00000+0  10962-3 0  99922 37744  51.9917 269.4732 0000119  42.1920 353.0690 12.62263259700754

JSON: /api/v1/satellites/37744 · /tle

For live sub-satellite position, see the globe view (requires WebGL).

§ Visibility from observer

Set your observer location to see the next 7 days of passes ≥ 10°. The values pass through the URL so the page stays shareable.

No JS? Fill the form by hand. The geolocation button needs JavaScript.